"Timestamp","TZ","WindDir_Mean (deg)","WindSpd_Mean (km/h)","WindSpd_Min (km/h)","WindSpd_Max (km/h)","Temp_Mean (deg)","RH_Mean (%)","MSLP_Mean (hPa)","Rain_Acc (mm)","Rain_Intensity (mm/h)","Hail_Acc (hits/cm2)","Hail_Intensity (hits/cm2hr)","Solar_Mean (W/m2)"
2022/12/19 00:00:00.003,n,174,15.48,13.68,18,20.1,55.5,1018.12,0,0,0,0,0.008659
2022/12/19 00:01:00.001,n,172,5.4,3.6,7.2,20.1,55.7,1018.12,0,0,0,0,0.00782
2022/12/19 00:02:00.001,n,132,15.48,14.76,16.919998,20.1,55.5,1018.12,0,0,0,0,0.009537
2022/12/19 00:03:00.001,n,150,6.84,5.4,9.72,20.1,55.6,1018.12,0,0,0,0,0.011292
2022/12/19 00:04:00.002,n,174,9.72,6.12,13.32,20,55.8,1018.12,0,0,0,0,0.008659
2022/12/19 00:05:00.001,n,114,3.6,2.88,4.32,20,55.8,1018.12,0,0,0,0,0.009537
2022/12/19 00:06:00.008,n,146,7.92,6.12,10.08,20,55.8,1018.12,0,0,0,0,0.00782
2022/12/19 00:07:00.011,n,146,6.84,3.6,11.52,20,55.8,1018.12,0,0,0,0,0.006943
2022/12/19 00:08:00.014,n,160,8.64,6.12,12.24,20,55.9,1018.02,0,0,0,0,0.012207
2022/12/19 00:09:00.015,n,149,6.12,5.76,7.56,20,56.1,1018.12,0,0,0,0,0.014801
2022/12/19 00:10:00.001,n,155,10.08,8.64,11.52,20,56.1,1018.12,0,0,0,0,0.013084
2022/12/19 00:11:00.002,n,136,4.68,2.52,6.84,19.9,56.1,1018.12,0,0,0,0,0.016556
2022/12/19 00:12:00.003,n,168,6.48,4.32,10.08,19.9,56.2,1018.02,0,0,0,0,0.016556
2022/12/19 00:13:00.001,n,164,9,6.48,11.88,19.9,56.2,1018.02,0,0,0,0,0.014801
2022/12/19 00:14:00.001,n,123,2.88,2.16,3.6,19.9,56.3,1018.02,0,0,0,0,0.015678
2022/12/19 00:15:00.001,n,165,17.28,11.52,22.319998,19.9,56.3,1017.92,0,0,0,0,0.013084
2022/12/19 00:16:00.001,n,198,7.92,6.12,10.440002,19.9,56.4,1017.92,0,0,0,0,0.01133
2022/12/19 00:17:00.006,n,167,11.52,4.68,17.28,19.9,56.5,1017.92,0,0,0,0,0.01133
2022/12/19 00:18:00.011,n,138,9.36,9,10.08,19.9,56.6,1017.92,0,0,0,0,0.012207
2022/12/19 00:19:00.001,n,157,9.36,4.68,13.68,19.8,56.6,1017.82,0,0,0,0,0.012207
2022/12/19 00:20:00.001,n,173,9,3.6,17.28,19.8,56.6,1017.82,0,0,0,0,0.013084
2022/12/19 00:21:00.002,n,114,6.12,5.04,6.84,19.8,56.7,1017.82,0,0,0,0,0.013084
2022/12/19 00:22:00.003,n,164,7.92,6.48,12.6,19.8,56.8,1017.82,0,0,0,0,0.009575
2022/12/19 00:23:00.003,n,147,7.56,6.48,13.68,19.8,56.9,1017.82,0,0,0,0,0.009575
2022/12/19 00:24:00.002,n,207,5.4,3.96,7.2,19.8,56.9,1017.92,0,0,0,0,0.01915
2022/12/19 00:25:00.004,n,118,4.32,2.88,5.4,19.8,56.9,1017.92,0,0,0,0,0.018272
2022/12/19 00:26:00.008,n,143,11.52,10.440002,12.96,19.8,57.1,1017.92,0,0,0,0,0.01915
2022/12/19 00:27:00.017,n,164,9.72,9.36,10.8,19.7,57,1017.92,0,0,0,0,0.020027
2022/12/19 00:28:00.004,n,162,3.96,2.52,4.68,19.7,57.1,1017.92,0,0,0,0,0.018272
2022/12/19 00:29:00.001,n,193,3.24,0.72,8.28,19.7,57.1,1018.02,0,0,0,0,0.017395
2022/12/19 00:30:00.002,n,123,6.84,5.76,7.92,19.7,57.2,1018.02,0,0,0,0,0.018272
2022/12/19 00:31:00.002,n,152,10.8,9,15.48,19.7,57.2,1018.02,0,0,0,0,0.017395
2022/12/19 00:32:00.001,n,140,6.12,3.6,7.2,19.7,57.2,1017.92,0,0,0,0,0.017395
2022/12/19 00:33:00.005,n,137,8.64,7.56,8.64,19.7,57.1,1017.92,0,0,0,0,0.016518
2022/12/19 00:34:00.013,n,190,4.32,2.16,8.28,19.7,57.2,1017.92,0,0,0,0,0.01915
2022/12/19 00:35:00.010,n,173,2.52,1.44,7.2,19.7,57.3,1017.92,0,0,0,0,0.013046
2022/12/19 00:36:00.013,n,153,6.12,4.68,11.88,19.7,57.4,1017.92,0,0,0,0,0.012169
2022/12/19 00:37:00.002,n,192,9.72,6.48,12.96,19.7,57.2,1017.82,0,0,0,0,0.016518
2022/12/19 00:38:00.001,n,172,5.76,3.96,10.08,19.7,57.3,1017.82,0,0,0,0,0.018272
2022/12/19 00:39:00.002,n,92,2.52,1.08,3.6,19.7,57.3,1017.82,0,0,0,0,0.013046
2022/12/19 00:40:00.001,n,160,9,5.76,12.24,19.7,57.3,1017.82,0,0,0,0,0.014801
2022/12/19 00:41:00.002,n,155,7.2,6.84,7.56,19.7,57.3,1017.82,0,0,0,0,0.011292
2022/12/19 00:42:00.007,n,171,4.68,3.6,8.28,19.6,57.6,1017.82,0,0,0,0,0.016518
2022/12/19 00:43:00.010,n,156,4.68,1.8,6.84,19.7,57.6,1017.82,0,0,0,0,0.013046
2022/12/19 00:44:00.013,n,164,5.4,3.96,9.36,19.6,57.6,1017.82,0,0,0,0,0.013924
2022/12/19 00:45:00.017,n,153,5.04,4.32,5.4,19.6,57.6,1017.82,0,0,0,0,0.01564
2022/12/19 00:46:00.001,n,155,6.84,6.12,8.28,19.6,57.6,1017.82,0,0,0,0,0.014801
2022/12/19 00:47:00.001,n,168,9,8.28,9.36,19.6,57.6,1017.82,0,0,0,0,0.013924
2022/12/19 00:48:00.002,n,152,6.12,5.4,7.92,19.6,57.5,1017.82,0,0,0,0,0.01564
2022/12/19 00:49:00.001,n,150,5.04,4.32,5.4,19.6,57.6,1017.82,0,0,0,0,0.013924
2022/12/19 00:50:00.001,n,145,3.6,2.88,4.68,19.6,57.7,1017.82,0,0,0,0,0.020866
2022/12/19 00:51:00.006,n,163,3.96,3.6,8.28,19.6,57.8,1017.82,0,0,0,0,0.022659
2022/12/19 00:52:00.002,n,186,3.24,2.16,4.68,19.6,57.9,1017.82,0,0,0,0,0.024376
2022/12/19 00:53:00.019,n,152,3.96,2.16,8.64,19.6,57.9,1017.82,0,0,0,0,0.027847
2022/12/19 00:54:00.019,n,194,2.88,0.72,7.56,19.6,58,1017.82,0,0,0,0,0.033073
2022/12/19 00:55:00.001,n,179,5.76,5.04,9.72,19.6,57.5,1017.82,0,0,0,0,0.030441
2022/12/19 00:56:00.001,n,171,5.4,3.96,6.12,19.6,57.7,1017.82,0,0,0,0,0.033951
2022/12/19 00:57:00.002,n,161,7.56,6.48,10.08,19.6,57.6,1017.82,0,0,0,0,0.039177
2022/12/19 00:58:00.005,n,150,3.24,2.88,3.96,19.6,57.7,1017.82,0,0,0,0,0.014801
2022/12/19 00:59:00.009,n,166,5.04,2.52,9.36,19.6,57.5,1017.82,0,0,0,0,0.017395
2022/12/19 01:00:00.002,n,178,10.440002,6.84,14.04,19.6,57.7,1017.82,0,0,0,0,0.018272
2022/12/19 01:01:00.011,n,134,7.92,7.56,8.64,19.6,57.6,1017.82,0,0,0,0,0.021744
2022/12/19 01:02:00.008,n,187,2.52,1.8,2.88,19.6,57.6,1017.82,0,0,0,0,0.024338
2022/12/19 01:03:00.020,n,158,5.76,4.68,7.2,19.6,57.4,1017.82,0,0,0,0,0.026093
2022/12/19 01:04:00.001,n,131,2.52,0.36,4.68,19.5,57.5,1017.82,0,0,0,0,0.026093
2022/12/19 01:05:00.001,n,166,9.36,6.12,13.32,19.5,57.2,1017.82,0,0,0,0,0.028687
2022/12/19 01:06:00.014,n,142,4.32,3.24,5.4,19.5,57.2,1017.82,0,0,0,0,0.02697
2022/12/19 01:07:00.001,n,209,11.88,6.84,14.4,19.5,57.1,1017.82,0,0,0,0,0.031319
2022/12/19 01:08:00.007,n,148,6.48,5.76,6.84,19.5,57.2,1017.82,0,0,0,0,0.03479
2022/12/19 01:09:00.002,n,161,5.04,4.32,9.72,19.6,57.2,1017.72,0,0,0,0,0.033913
2022/12/19 01:10:00.001,n,207,9.36,8.28,13.32,19.6,57.2,1017.72,0,0,0,0,0.032196
2022/12/19 01:11:00.013,n,206,6.48,5.04,7.56,19.6,57.3,1017.72,0,0,0,0,0.037422
2022/12/19 01:12:00.019,n,172,3.24,2.52,7.2,19.6,57.1,1017.72,0,0,0,0,0.036545
2022/12/19 01:13:00.008,n,134,3.6,2.52,3.96,19.6,57.1,1017.72,0,0,0,0,0.040894
2022/12/19 01:14:00.001,n,150,4.68,2.52,8.64,19.6,56.9,1017.72,0,0,0,0,0.040054
2022/12/19 01:15:00.007,n,149,5.4,5.04,5.4,19.6,57.2,1017.72,0,0,0,0,0.012169
2022/12/19 01:16:00.005,n,149,3.96,3.96,3.96,19.6,57.3,1017.82,0,0,0,0,0.022621
2022/12/19 01:17:00.007,n,146,4.32,3.96,4.68,19.6,57.4,1017.82,0,0,0,0,0.022621
2022/12/19 01:18:00.016,n,153,4.68,4.32,4.68,19.6,57.5,1017.82,0,0,0,0,0.022621
2022/12/19 01:19:00.013,n,181,7.92,4.68,8.64,19.5,57.5,1017.82,0,0,0,0,0.023499
2022/12/19 01:20:00.017,n,162,3.6,3.24,3.96,19.5,57.6,1017.72,0,0,0,0,0.025215
2022/12/19 01:21:00.015,n,140,1.8,1.8,2.16,19.5,57.7,1017.72,0,0,0,0,0.024376
2022/12/19 01:22:00.001,n,129,2.16,1.44,2.52,19.5,57.9,1017.72,0,0,0,0,0.024376
2022/12/19 01:23:00.002,n,141,3.96,2.52,8.28,19.5,58,1017.72,0,0,0,0,0.025215
2022/12/19 01:24:00.009,n,109,2.16,1.8,2.16,19.5,58,1017.72,0,0,0,0,0.027809
2022/12/19 01:25:00.008,n,161,3.6,2.52,7.92,19.5,57.9,1017.72,0,0,0,0,0.031319
2022/12/19 01:26:00.008,n,192,2.16,0.36,3.24,19.4,57.9,1017.72,0,0,0,0,0.027809
2022/12/19 01:27:00.011,n,167,8.64,6.48,11.88,19.4,58.1,1017.62,0,0,0,0,0.030441
2022/12/19 01:28:00.005,n,173,9.72,5.4,11.88,19.4,58.1,1017.62,0,0,0,0,0.033951
2022/12/19 01:29:00.005,n,169,11.16,7.92,14.4,19.4,57.9,1017.62,0,0,0,0,0.029602
2022/12/19 01:30:00.005,n,166,8.28,7.2,8.64,19.4,57.9,1017.62,0,0,0,0,0.030441
2022/12/19 01:31:00.001,n,208,4.32,2.88,7.56,19.4,57.9,1017.62,0,0,0,0,0.033035
2022/12/19 01:32:00.001,n,136,5.76,3.24,6.12,19.4,57.8,1017.62,0,0,0,0,0.033951
2022/12/19 01:33:00.002,n,132,8.64,7.56,9.72,19.4,57.8,1017.52,0,0,0,0,0.033951
2022/12/19 01:34:00.006,n,152,5.76,2.88,7.56,19.4,57.8,1017.52,0,0,0,0,0.033951
2022/12/19 01:35:00.010,n,163,5.76,5.04,6.84,19.3,57.9,1017.62,0,0,0,0,0.03479
2022/12/19 01:36:00.014,n,143,9.72,9,11.88,19.3,58,1017.52,0,0,0,0,0.033951
2022/12/19 01:37:00.015,n,135,5.04,3.96,6.12,19.3,58,1017.52,0,0,0,0,0.035667
2022/12/19 01:38:00.015,n,146,5.4,4.32,6.12,19.3,58,1017.52,0,0,0,0,0.035667
2022/12/19 01:39:00.026,n,130,7.92,7.56,7.92,19.3,58,1017.52,0,0,0,0,0.038261
2022/12/19 01:40:00.001,n,162,6.12,5.76,6.48,19.3,58.2,1017.52,0,0,0,0,0.03479
2022/12/19 01:41:00.001,n,167,9,5.04,11.52,19.3,58.2,1017.42,0,0,0,0,0.036545
2022/12/19 01:42:00.001,n,171,2.88,2.88,3.24,19.3,58.2,1017.42,0,0,0,0,0.036545
2022/12/19 01:43:00.008,n,144,3.24,2.88,3.96,19.3,58.4,1017.42,0,0,0,0,0.012169
2022/12/19 01:44:00.005,n,161,3.96,3.24,4.68,19.3,58.4,1017.42,0,0,0,0,0.017395
2022/12/19 01:45:00.011,n,167,3.6,3.24,3.96,19.3,58.5,1017.42,0,0,0,0,0.015678
2022/12/19 01:46:00.013,n,191,9.36,7.56,11.88,19.3,58.3,1017.42,0,0,0,0,0.017395
2022/12/19 01:47:00.013,n,153,5.76,3.96,10.08,19.3,58.5,1017.42,0,0,0,0,0.017395
2022/12/19 01:48:00.014,n,163,7.56,6.84,8.28,19.2,58.5,1017.42,0,0,0,0,0.019989
2022/12/19 01:49:00.004,n,159,6.12,5.04,6.48,19.2,58.7,1017.42,0,0,0,0,0.024376
2022/12/19 01:50:00.001,n,204,11.52,10.440002,12.6,19.2,58.6,1017.42,0,0,0,0,0.019989
2022/12/19 01:51:00.004,n,175,12.96,11.88,13.68,19.2,58.7,1017.42,0,0,0,0,0.018272
2022/12/19 01:52:00.002,n,190,9.36,7.2,12.24,19.2,58.6,1017.42,0,0,0,0,0.021782
2022/12/19 01:53:00.009,n,215,5.76,5.04,6.48,19.2,58.7,1017.42,0,0,0,0,0.01915
2022/12/19 01:54:00.004,n,168,6.84,4.68,10.440002,19.2,58.7,1017.42,0,0,0,0,0.019989
2022/12/19 01:55:00.006,n,176,7.2,3.6,11.52,19.2,58.9,1017.32,0,0,0,0,0.015678
2022/12/19 01:56:00.011,n,167,3.96,3.24,4.32,19.1,58.8,1017.32,0,0,0,0,0.018272
2022/12/19 01:57:00.006,n,173,7.92,6.12,11.88,19.1,58.8,1017.32,0,0,0,0,0.017395
2022/12/19 01:58:00.003,n,178,4.32,2.88,8.28,19.1,58.9,1017.32,0,0,0,0,0.018272
2022/12/19 01:59:00.003,n,143,4.68,1.44,6.12,19.1,58.9,1017.32,0,0,0,0,0.014763
2022/12/19 02:00:00.001,n,198,4.32,2.16,9.36,19.1,59,1017.32,0,0,0,0,0.015678
2022/12/19 02:01:00.016,n,177,3.6,1.44,5.76,19.1,59.1,1017.32,0,0,0,0,0.017395
2022/12/19 02:02:00.003,n,161,2.52,1.8,3.24,19.1,59.2,1017.32,0,0,0,0,0.017395
2022/12/19 02:03:00.010,n,166,3.96,2.88,4.32,19.1,59.4,1017.42,0,0,0,0,0.017395
2022/12/19 02:04:00.010,n,170,3.6,3.24,4.32,19.1,59.4,1017.42,0,0,0,0,0.019989
2022/12/19 02:05:00.003,n,171,7.92,6.12,12.6,19.1,59.2,1017.42,0,0,0,0,0.019989
2022/12/19 02:06:00.009,n,165,6.12,5.4,6.48,19,59.4,1017.42,0,0,0,0,0.018272
2022/12/19 02:07:00.002,n,193,7.56,5.4,9.36,19,59.4,1017.42,0,0,0,0,0.01915
2022/12/19 02:08:00.011,n,240,3.6,3.24,4.32,19,59.3,1017.32,0,0,0,0,0.019989
2022/12/19 02:09:00.001,n,193,1.44,1.08,5.76,19,59.4,1017.32,0,0,0,0,0.017395
2022/12/19 02:10:00.009,n,193,3.24,2.16,4.68,19,59.5,1017.32,0,0,0,0,0.018272
2022/12/19 02:11:00.001,n,221,4.68,3.96,6.48,19,59.8,1017.32,0,0,0,0,0.014763
2022/12/19 02:12:00.006,n,152,1.08,0.36,5.76,19,59.8,1017.32,0,0,0,0,0.01915
2022/12/19 02:13:00.006,n,139,2.52,1.44,3.24,19,59.9,1017.22,0,0,0,0,0.013046
2022/12/19 02:14:00.013,n,220,3.24,2.16,4.32,19,59.9,1017.22,0,0,0,0,0.016556
2022/12/19 02:15:00.016,n,163,3.24,3.24,3.96,19,59.8,1017.22,0,0,0,0,0.01915
2022/12/19 02:16:00.002,n,225,3.6,2.16,4.32,19,59.9,1017.22,0,0,0,0,0.013924
2022/12/19 02:17:00.001,n,219,3.6,2.52,5.04,18.9,60,1017.22,0,0,0,0,0.018272
2022/12/19 02:18:00.002,n,261,2.88,1.44,7.2,18.9,60.3,1017.22,0,0,0,0,0.015678
2022/12/19 02:19:00.005,n,200,3.24,1.8,4.32,18.9,60.2,1017.22,0,0,0,0,0.017395
2022/12/19 02:20:00.002,n,255,6.48,3.24,7.92,18.9,60.2,1017.32,0,0,0,0,0.016556
2022/12/19 02:21:00.006,n,205,3.6,2.88,5.4,18.8,60.3,1017.32,0,0,0,0,0.019989
2022/12/19 02:22:00.005,n,235,5.04,2.88,7.2,18.8,60.6,1017.32,0,0,0,0,0.017395
2022/12/19 02:23:00.005,n,259,6.12,4.68,6.84,18.8,60.6,1017.32,0,0,0,0,0.016556
2022/12/19 02:24:00.002,n,236,2.52,1.44,4.68,18.8,60.9,1017.32,0,0,0,0,0.015678
2022/12/19 02:25:00.009,n,228,5.76,3.6,6.12,18.8,60.9,1017.42,0,0,0,0,0.016556
2022/12/19 02:26:00.001,n,313,2.88,1.08,4.68,18.7,61.3,1017.42,0,0,0,0,0.015678
2022/12/19 02:27:00.002,n,232,4.68,1.8,5.76,18.7,61.1,1017.42,0,0,0,0,0.020905
2022/12/19 02:28:00.007,n,213,4.68,2.16,7.56,18.7,60.9,1017.42,0,0,0,0,0.015678
2022/12/19 02:29:00.007,n,270,2.16,1.44,2.52,18.7,61.1,1017.42,0,0,0,0,0.017395
2022/12/19 02:30:00.005,n,248,4.68,1.44,6.84,18.7,61.2,1017.42,0,0,0,0,0.014763
2022/12/19 02:31:00.013,n,251,5.4,5.04,5.76,18.6,61.1,1017.42,0,0,0,0,0.016556
2022/12/19 02:32:00.021,n,249,6.12,5.4,6.48,18.6,61.1,1017.32,0,0,0,0,0.017395
2022/12/19 02:33:00.006,n,232,6.84,4.68,9.72,18.6,61.1,1017.32,0,0,0,0,0.016556
2022/12/19 02:34:00.002,n,173,3.6,2.52,6.84,18.6,61.1,1017.32,0,0,0,0,0.014763
2022/12/19 02:35:00.002,n,261,6.84,5.76,7.2,18.6,60.9,1017.32,0,0,0,0,0.017395
2022/12/19 02:36:00.004,n,210,2.88,2.16,3.6,18.5,60.9,1017.32,0,0,0,0,0.013924
2022/12/19 02:37:00.001,n,224,3.96,1.44,5.4,18.5,60.8,1017.32,0,0,0,0,0.016556
2022/12/19 02:38:00.001,n,269,2.52,1.44,3.24,18.5,61.2,1017.32,0,0,0,0,0.013924
2022/12/19 02:39:00.001,n,214,2.88,2.16,3.6,18.5,61.1,1017.22,0,0,0,0,0.013924
2022/12/19 02:40:00.002,n,259,6.12,2.16,7.56,18.5,61,1017.22,0,0,0,0,0.016556
2022/12/19 02:41:00.002,n,276,1.8,1.08,3.24,18.5,61.3,1017.22,0,0,0,0,0.018272
2022/12/19 02:42:00.017,n,194,2.52,1.8,2.88,18.5,61.1,1017.22,0,0,0,0,0.015678
2022/12/19 02:43:00.002,n,207,2.52,1.44,5.76,18.4,61.1,1017.22,0,0,0,0,0.015678
2022/12/19 02:44:00.001,n,228,3.96,2.52,5.76,18.4,60.9,1017.22,0,0,0,0,0.015678
2022/12/19 02:45:00.007,n,157,1.08,0.36,1.44,18.4,61.2,1017.22,0,0,0,0,0.014763
2022/12/19 02:46:00.003,n,204,2.88,1.8,3.6,18.4,61.1,1017.22,0,0,0,0,0.012169
2022/12/19 02:47:00.001,n,215,3.24,1.44,3.96,18.4,61.1,1017.22,0,0,0,0,0.013924
2022/12/19 02:48:00.001,n,225,3.24,2.52,3.6,18.4,61.2,1017.22,0,0,0,0,0.013924
2022/12/19 02:49:00.001,n,200,2.88,2.52,3.24,18.4,61.4,1017.22,0,0,0,0,0.010452
2022/12/19 02:50:00.002,n,213,4.32,3.24,6.84,18.4,61.4,1017.22,0,0,0,0,0.012169
2022/12/19 02:51:00.010,n,246,5.04,4.32,5.76,18.4,61.5,1017.22,0,0,0,0,0.014763
2022/12/19 02:52:00.009,n,272,9,8.28,10.08,18.4,61.3,1017.22,0,0,0,0,0.010452
2022/12/19 02:53:00.001,n,188,6.12,3.6,10.08,18.4,61.2,1017.22,0,0,0,0,0.013924
2022/12/19 02:54:00.001,n,200,3.96,2.88,4.68,18.4,61.5,1017.22,0,0,0,0,0.012169
2022/12/19 02:55:00.001,n,260,2.52,1.8,3.24,18.4,61.4,1017.22,0,0,0,0,0.010452
2022/12/19 02:56:00.001,n,198,3.6,2.52,5.4,18.3,61.4,1017.22,0,0,0,0,0.012169
2022/12/19 02:57:00.009,n,240,3.24,2.52,3.24,18.3,61.4,1017.22,0,0,0,0,0.013046
2022/12/19 02:58:00.318,n,201,2.16,1.8,2.52,18.3,61.6,1017.22,0,0,0,0,0.009575
2022/12/19 02:59:00.002,n,14,1.8,0.72,3.96,18.3,61.6,1017.22,0,0,0,0,0.010452
2022/12/19 03:00:00.006,n,214,2.52,1.44,5.76,18.3,61.5,1017.22,0,0,0,0,0.016556
2022/12/19 03:01:00.003,n,188,1.08,0,1.44,18.3,61.6,1017.22,0,0,0,0,0.009575
2022/12/19 03:02:00.005,n,209,4.32,3.24,4.68,18.3,61.4,1017.22,0,0,0,0,0.01133
2022/12/19 03:03:00.010,n,182,2.88,1.44,4.68,18.3,61.7,1017.22,0,0,0,0,0.009575
2022/12/19 03:04:00.006,n,171,2.52,1.8,5.04,18.3,61.6,1017.22,0,0,0,0,0.014763
2022/12/19 03:05:00.003,n,127,1.8,0.36,6.12,18.3,61.6,1017.12,0,0,0,0,0.012169
2022/12/19 03:06:00.002,n,190,4.32,3.6,5.04,18.3,61.7,1017.12,0,0,0,0,0.013046
2022/12/19 03:07:00.008,n,170,5.04,3.6,9.72,18.3,61.2,1017.12,0,0,0,0,0.010452
2022/12/19 03:08:00.013,n,357,1.8,1.08,4.68,18.2,61.5,1017.12,0,0,0,0,0.010452
2022/12/19 03:09:00.014,n,213,0.72,0.36,1.08,18.3,61.6,1017.12,0,0,0,0,0.013046
2022/12/19 03:10:00.001,n,270,3.96,1.8,7.2,18.3,61.6,1017.12,0,0,0,0,0.010452
2022/12/19 03:11:00.001,n,203,2.88,1.8,3.96,18.3,61.6,1017.12,0,0,0,0,0.013046
2022/12/19 03:12:00.005,n,214,3.24,2.88,4.68,18.2,61.6,1017.12,0,0,0,0,0.006981
2022/12/19 03:13:00.013,n,206,2.16,1.44,3.96,18.2,61.7,1017.12,0,0,0,0,0.008698
2022/12/19 03:14:00.013,n,205,1.08,0.36,1.8,18.2,61.6,1017.22,0,0,0,0,0.008698
2022/12/19 03:15:00.002,n,224,3.6,3.24,4.68,18.2,61.6,1017.22,0,0,0,0,0.013046
2022/12/19 03:16:00.005,n,146,4.32,3.24,5.04,18.2,61.8,1017.22,0,0,0,0,0.009575
2022/12/19 03:17:00.012,n,186,2.88,2.16,7.2,18.2,61.7,1017.22,0,0,0,0,0.013924
2022/12/19 03:18:00.010,n,254,3.24,2.88,3.96,18.2,61.8,1017.22,0,0,0,0,0.010452
2022/12/19 03:19:00.002,n,188,3.6,2.16,5.4,18.2,61.8,1017.22,0,0,0,0,0.013046
2022/12/19 03:20:00.001,n,216,2.52,1.08,3.6,18.2,61.8,1017.22,0,0,0,0,0.012169
2022/12/19 03:21:00.001,n,218,4.32,3.6,5.4,18.2,62,1017.22,0,0,0,0,0.012169
2022/12/19 03:22:00.003,n,193,3.6,3.24,3.96,18.2,62,1017.22,0,0,0,0,0.010452
2022/12/19 03:23:00.010,n,170,2.52,1.44,3.6,18.2,61.9,1017.22,0,0,0,0,0.009575
2022/12/19 03:24:00.002,n,205,1.8,1.08,3.6,18.2,62,1017.32,0,0,0,0,0.013924
2022/12/19 03:25:00.010,n,197,2.88,1.08,3.96,18.2,62,1017.32,0,0,0,0,0.01133
2022/12/19 03:26:00.015,n,256,7.2,0.72,9,18.2,62.3,1017.32,0,0,0,0,0.013046
2022/12/19 03:27:00.011,n,171,3.6,2.52,7.92,18.2,62.2,1017.32,0,0,0,0,0.016556
2022/12/19 03:28:00.006,n,225,4.32,3.96,4.68,18.2,62.2,1017.42,0,0,0,0,0.013924
2022/12/19 03:29:00.004,n,198,3.24,2.16,4.32,18.2,62.4,1017.42,0,0,0,0,0.012169
2022/12/19 03:30:00.009,n,216,3.6,2.16,4.32,18.1,62.4,1017.42,0,0,0,0,0.010452
2022/12/19 03:31:00.001,n,241,5.04,2.52,9,18.1,62.4,1017.42,0,0,0,0,0.013924
2022/12/19 03:32:00.009,n,268,3.6,2.52,4.32,18.1,62.6,1017.42,0,0,0,0,0.015678
2022/12/19 03:33:00.005,n,249,6.48,3.24,8.64,18.1,62.6,1017.42,0,0,0,0,0.013924
2022/12/19 03:34:00.014,n,205,4.68,3.24,5.76,18.1,62.7,1017.42,0,0,0,0,0.013924
2022/12/19 03:35:00.006,n,255,6.48,6.12,7.56,18.1,62.6,1017.42,0,0,0,0,0.01133
2022/12/19 03:36:00.014,n,213,3.96,3.6,4.32,18.1,62.6,1017.52,0,0,0,0,0.013046
2022/12/19 03:37:00.001,n,135,2.16,0.72,5.76,18.1,62.8,1017.52,0,0,0,0,0.014763
2022/12/19 03:38:00.003,n,221,3.6,3.24,4.32,18.1,62.7,1017.52,0,0,0,0,0.015678
2022/12/19 03:39:00.002,n,237,5.04,2.16,5.76,18.1,62.6,1017.52,0,0,0,0,0.015678
2022/12/19 03:40:00.009,n,202,3.6,2.52,4.32,18.1,62.7,1017.52,0,0,0,0,0.014763
2022/12/19 03:41:00.014,n,167,3.96,3.6,7.92,18.1,62.7,1017.52,0,0,0,0,0.014763
2022/12/19 03:42:00.010,n,218,2.88,2.16,3.96,18.1,62.7,1017.52,0,0,0,0,0.012169
2022/12/19 03:43:00.002,n,163,1.8,0.36,4.68,18.1,62.7,1017.52,0,0,0,0,0.012169
2022/12/19 03:44:00.004,n,332,0.72,0.36,5.4,18.1,62.6,1017.52,0,0,0,0,0.013046
2022/12/19 03:45:00.007,n,145,3.6,3.24,3.6,18,62.7,1017.52,0,0,0,0,0.017395
2022/12/19 03:46:00.002,n,189,1.8,0.36,4.68,18,62.7,1017.52,0,0,0,0,0.012169
2022/12/19 03:47:00.001,n,176,4.68,1.44,7.2,18,62.7,1017.52,0,0,0,0,0.013924
2022/12/19 03:48:00.002,n,110,0.72,0.72,1.08,18,62.8,1017.52,0,0,0,0,0.012169
2022/12/19 03:49:00.007,n,174,5.76,0.72,12.6,18,62.6,1017.52,0,0,0,0,0.008698
2022/12/19 03:50:00.001,n,159,7.56,4.68,12.6,18,62.5,1017.52,0,0,0,0,0.011368
2022/12/19 03:51:00.012,n,180,4.68,2.52,10.440002,18,62.6,1017.42,0,0,0,0,0.014801
2022/12/19 03:52:00.001,n,178,2.52,0.72,5.76,18,62.7,1017.52,0,0,0,0,0.010452
2022/12/19 03:53:00.001,n,181,8.28,5.76,9.36,18,62.6,1017.52,0,0,0,0,0.010452
2022/12/19 03:54:00.006,n,192,6.48,3.6,8.64,18,62.7,1017.52,0,0,0,0,0.006981
2022/12/19 03:55:00.001,n,173,4.32,1.44,9,18,62.5,1017.52,0,0,0,0,0.012169
2022/12/19 03:56:00.001,n,166,3.24,2.16,4.32,18,62.6,1017.42,0,0,0,0,0.013046
2022/12/19 03:57:00.001,n,168,8.64,6.48,12.6,17.9,62.6,1017.52,0,0,0,0,0.014763
2022/12/19 03:58:00.001,n,172,13.32,9.36,15.12,17.9,62.6,1017.42,0,0,0,0,0.013924
2022/12/19 03:59:00.004,n,161,8.28,7.2,9,17.9,62.6,1017.52,0,0,0,0,0.008698
2022/12/19 04:00:00.007,n,193,6.12,4.68,9.72,17.9,62.7,1017.52,0,0,0,0,0.00782
2022/12/19 04:01:00.010,n,163,3.6,3.6,3.96,17.9,62.7,1017.52,0,0,0,0,0.017395
2022/12/19 04:02:00.011,n,169,9.72,5.4,12.6,17.9,62.8,1017.52,0,0,0,0,0.019989
2022/12/19 04:03:00.005,n,207,3.96,3.24,7.2,17.9,62.8,1017.52,0,0,0,0,0.021744
2022/12/19 04:04:00.001,n,219,2.52,2.16,2.88,17.9,62.9,1017.52,0,0,0,0,0.018234
2022/12/19 04:05:00.001,n,215,6.12,5.04,6.84,17.9,62.9,1017.52,0,0,0,0,0.020866
2022/12/19 04:06:00.001,n,147,3.24,2.52,3.6,17.9,63,1017.52,0,0,0,0,0.017395
2022/12/19 04:07:00.004,n,194,7.92,6.48,10.440002,17.9,63,1017.52,0,0,0,0,0.014801
2022/12/19 04:08:00.009,n,56,2.16,0.72,5.04,17.9,63,1017.52,0,0,0,0,0.018311
2022/12/19 04:09:00.001,n,180,9.36,7.2,12.96,17.9,62.9,1017.52,0,0,0,0,0.023537
2022/12/19 04:10:00.002,n,166,10.08,7.2,15.84,17.9,63,1017.52,0,0,0,0,0.023537
2022/12/19 04:11:00.005,n,178,9,6.48,10.8,17.9,63,1017.52,0,0,0,0,0.026131
2022/12/19 04:12:00.009,n,161,15.12,10.440002,18.359998,17.9,62.9,1017.52,0,0,0,0,0.023537
2022/12/19 04:13:00.001,n,208,6.12,4.68,7.2,17.9,62.9,1017.62,0,0,0,0,0.024376
2022/12/19 04:14:00.002,n,196,5.4,3.96,7.2,17.8,63.1,1017.62,0,0,0,0,0.029602
2022/12/19 04:15:00.001,n,185,2.88,2.16,5.4,17.9,63.1,1017.62,0,0,0,0,0.028763
2022/12/19 04:16:00.001,n,257,8.64,7.56,10.08,17.9,63.1,1017.62,0,0,0,0,0.033951
2022/12/19 04:17:00.005,n,174,7.56,4.32,10.8,17.8,63.2,1017.62,0,0,0,0,0.035706
2022/12/19 04:18:00.008,n,230,4.32,2.88,5.76,17.9,63.3,1017.62,0,0,0,0,0.050468
2022/12/19 04:19:00.010,n,4,1.8,0.72,2.88,17.8,63.3,1017.72,0,0,0,0,0.065269
2022/12/19 04:20:00.013,n,191,3.24,1.8,6.48,17.8,63.5,1017.72,0,0,0,0,0.074844
2022/12/19 04:21:00.002,n,173,6.48,5.4,7.2,17.8,63.4,1017.72,0,0,0,0,0.087891
2022/12/19 04:22:00.001,n,239,3.24,1.44,5.4,17.8,63.5,1017.72,0,0,0,0,0.103531
2022/12/19 04:23:00.001,n,206,3.6,2.88,5.04,17.8,63.5,1017.82,0,0,0,0,0.135727
2022/12/19 04:24:00.002,n,171,4.68,3.24,6.84,17.8,63.5,1017.82,0,0,0,0,0.116615
2022/12/19 04:25:00.002,n,198,3.24,1.44,6.48,17.8,63.6,1017.82,0,0,0,0,0.232239
2022/12/19 04:26:00.005,n,186,3.6,2.16,7.2,17.8,63.5,1017.82,0,0,0,0,0.297432
2022/12/19 04:27:00.001,n,187,1.8,1.08,4.68,17.8,63.5,1017.82,0,0,0,0,0.361671
2022/12/19 04:28:00.002,n,150,8.28,7.56,13.68,17.8,63.6,1017.82,0,0,0,0,0.425072
2022/12/19 04:29:00.004,n,219,1.8,0.36,3.6,17.8,63.8,1017.82,0,0,0,0,0.498886
2022/12/19 04:30:00.003,n,183,5.76,4.32,7.56,17.8,63.8,1017.82,0,0,0,0,0.563087
2022/12/19 04:31:00.002,n,16,1.08,0.36,4.32,17.8,63.9,1017.92,0,0,0,0,0.633926
2022/12/19 04:32:00.001,n,133,3.24,0.72,7.2,17.8,63.9,1017.92,0,0,0,0,0.718384
2022/12/19 04:33:00.002,n,162,3.24,1.8,5.04,17.7,63.9,1017.92,0,0,0,0,0.843658
2022/12/19 04:34:00.003,n,223,4.68,2.88,6.12,17.7,64,1018.02,0,0,0,0,1.025314
2022/12/19 04:35:00.008,n,179,9.72,7.2,13.68,17.7,63.9,1018.02,0,0,0,0,1.260605
2022/12/19 04:36:00.002,n,161,9.72,6.84,14.76,17.7,63.9,1018.02,0,0,0,0,1.54583
2022/12/19 04:37:00.002,n,143,1.8,1.44,2.88,17.7,64,1018.02,0,0,0,0,1.82972
2022/12/19 04:38:00.008,n,169,4.32,2.88,8.64,17.7,64.1,1018.02,0,0,0,0,2.066002
2022/12/19 04:39:00.010,n,243,2.16,0.72,3.96,17.7,64.199996,1018.02,0,0,0,0,2.249756
2022/12/19 04:40:00.002,n,194,3.24,2.52,5.76,17.7,64.199996,1018.12,0,0,0,0,2.357102
2022/12/19 04:41:00.002,n,175,12.6,9,15.12,17.7,64.199996,1018.12,0,0,0,0,2.431564
2022/12/19 04:42:00.001,n,183,4.32,2.88,5.76,17.6,64.300004,1018.12,0,0,0,0,2.584648
2022/12/19 04:43:00.001,n,174,7.56,5.04,10.8,17.6,64.300004,1018.12,0,0,0,0,2.862816
2022/12/19 04:44:00.001,n,146,9.72,5.76,12.96,17.6,64.4,1018.12,0,0,0,0,3.236199
2022/12/19 04:45:00.003,n,165,6.84,6.12,11.52,17.6,64.4,1018.12,0,0,0,0,3.659439
2022/12/19 04:46:00.006,n,242,4.68,3.96,5.4,17.6,64.5,1018.12,0,0,0,0,4.110108
2022/12/19 04:47:00.008,n,201,3.24,2.16,5.04,17.6,64.6,1018.22,0,0,0,0,4.589615
2022/12/19 04:48:00.011,n,157,4.32,1.44,6.84,17.6,64.6,1018.22,0,0,0,0,5.104561
2022/12/19 04:49:00.002,n,173,12.6,7.92,16.919998,17.6,64.6,1018.22,0,0,0,0,5.652657
2022/12/19 04:50:00.002,n,168,9.72,7.56,15.48,17.6,64.699996,1018.22,0,0,0,0,6.220322
2022/12/19 04:51:00.002,n,186,10.440002,9,12.6,17.6,64.800004,1018.22,0,0,0,0,6.805039
2022/12/19 04:52:00.002,n,202,5.04,4.32,7.2,17.6,64.9,1018.22,0,0,0,0,7.628517
2022/12/19 04:53:00.002,n,180,11.88,8.28,14.4,17.6,64.9,1018.22,0,0,0,0,8.66787
2022/12/19 04:54:00.006,n,192,10.08,7.56,13.32,17.6,64.9,1018.22,0,0,0,0,9.528236